Moses Lake, WA

1:49 AM PDT on August 23, 2017 (GMT -0700)
Grant County International

Weather History for KMWH - September, 2012

Change the Weather History Date:

Sunday, September 16, 2012

  Actual Average Record
Temperature  
Mean Temperature 68 °F 62 °F  
Max Temperature 88 °F 78 °F 91 °F (1998)
Min Temperature 47 °F 47 °F 39 °F (2006)
Degree Days  
Heating Degree Days 0 4  
Month to date heating degree days 25 38  
Since 1 July heating degree days 37 58  
Cooling Degree Days 3 1  
Month to date cooling degree days 32 37  
Year to date cooling degree days 713 607  
Growing Degree Days 17 (Base 50)    
Moisture  
Dew Point 28 °F    
Average Humidity 36    
Maximum Humidity 65    
Minimum Humidity 7    
Precipitation  
Precipitation 0.00 in 0.01 in 0.07 in (1997)
Month to date precipitation T 0.13  
Year to date precipitation 5.58 5.56  
Sea Level Pressure  
Sea Level Pressure 30.10 in    
Wind  
Wind Speed 7 mph (North)    
Max Wind Speed 21 mph    
Max Gust Speed 25 mph    
Visibility 10 miles    
Events      
T = Trace of Precipitation, MM = Missing Value Source: NWS Daily Summary

Daily Weather History Graph

Daily Weather History Graph

Search for Another Location

Airport or City:

Trip Planner

Search our weather history database for the weather conditions in past years. The results will help you decide how hot, cold, wet, or windy it might be!

Date:

Astronomy

Sep. 16, 2012 Rise Set
Actual Time 6:36 AM PDT 7:05 PM PDT
Civil Twilight 6:06 AM PDT 7:36 PM PDT
Nautical Twilight 5:29 AM PDT 8:12 PM PDT
Astronomical Twilight 4:51 AM PDT 8:50 PM PDT
Moon 7:29 AM PDT (9/16) 7:04 PM PDT (9/16)
Length of Visible Light 13h 30m
Length of Day
12h 29m
New Moon, 1% of the Moon is Illuminated
Sep 16
New Moon
Sep 22
First Quarter
Sep 29
Full
Oct 8
Last Quarter
Oct 15
New

Hourly Weather History & Observations

Time (PDT) Temp. Dew Point Humidity Pressure Visibility Wind Dir Wind Speed Gust Speed Precip Events Conditions
12:52 AM 55.0 °F 36.0 °F 49% 30.06 in 9.0 mi NNE 3.5 mph - N/A   Clear
1:52 AM 53.1 °F 37.0 °F 55% 30.08 in 9.0 mi Calm Calm - N/A   Clear
2:52 AM 52.0 °F 37.0 °F 57% 30.09 in 9.0 mi Calm Calm - N/A   Clear
3:52 AM 48.9 °F 36.0 °F 61% 30.09 in 9.0 mi Calm Calm - N/A   Clear
4:52 AM 50.0 °F 36.0 °F 59% 30.09 in 10.0 mi Calm Calm - N/A   Clear
5:52 AM 48.9 °F 36.0 °F 61% 30.12 in 9.0 mi Calm Calm - N/A   Clear
6:52 AM 46.9 °F 35.1 °F 63% 30.14 in 10.0 mi Calm Calm - N/A   Clear
7:52 AM 55.9 °F 35.1 °F 45% 30.15 in 10.0 mi North 3.5 mph - N/A   Clear
8:52 AM 66.0 °F 35.1 °F 32% 30.16 in 10.0 mi North 6.9 mph - N/A   Clear
9:52 AM 75.0 °F 28.0 °F 18% 30.16 in 10.0 mi North 13.8 mph - N/A   Clear
10:52 AM 79.0 °F 25.0 °F 14% 30.15 in 10.0 mi North 15.0 mph - N/A   Clear
11:52 AM 82.9 °F 21.9 °F 11% 30.14 in 10.0 mi North 17.3 mph 20.7 mph N/A   Clear
12:52 PM 84.2 °F 19.4 °F 9% 30.14 in 10.0 mi North 17.3 mph 21.9 mph N/A   Clear
1:52 PM 86.0 °F 21.0 °F 9% 30.11 in 10.0 mi North 10.4 mph - N/A   Clear
2:52 PM 87.1 °F 17.1 °F 8% 30.09 in 10.0 mi North 6.9 mph - N/A   Clear
3:52 PM 88.0 °F 16.0 °F 7% 30.08 in 10.0 mi North 10.4 mph - N/A   Clear
4:52 PM 87.1 °F 16.0 °F 7% 30.07 in 10.0 mi NNW 9.2 mph - N/A   Clear
5:52 PM 84.9 °F 16.0 °F 8% 30.06 in 10.0 mi North 10.4 mph - N/A   Clear
6:52 PM 79.0 °F 32.0 °F 18% 30.07 in 10.0 mi West 6.9 mph - N/A   Clear
7:52 PM 72.0 °F 33.1 °F 24% 30.08 in 10.0 mi West 6.9 mph - N/A   Clear
8:52 PM 68.0 °F 33.1 °F 27% 30.08 in 10.0 mi WNW 8.1 mph - N/A   Clear
9:52 PM 66.9 °F 26.1 °F 21% 30.08 in 10.0 mi Variable 5.8 mph - N/A   Clear
10:52 PM 61.0 °F 26.1 °F 26% 30.09 in 10.0 mi North 4.6 mph - N/A   Clear
11:52 PM 55.9 °F 28.0 °F 34% 30.09 in 10.0 mi North 8.1 mph - N/A   Clear